Regional Weather Roundup
Issued by NWS

Home | Current Version | Previous Version | Graphics & Text | Print | Product List | Glossary On
Versions: 1 2 3 4 5 6 7 8 9 10 11 12 13 14 15 16 17 18 19 20 21 22 23 24 25 26 27 28 29 30 31 32 33 34 35 36 37 38 39 40 41 42 43 44 45 46 47 48 49 50
000
ASUS43 KBIS 311510
RWRND

NORTH DAKOTA REGIONAL WEATHER ROUNDUP
NATIONAL WEATHER SERVICE BISMARCK ND
1000 AM CDT MON AUG 31 2015

NOTE: "FAIR" INDICATES FEW OR NO CLOUDS BELOW 12,000 FEET WITH NO
SIGNIFICANT WEATHER AND/OR OBSTRUCTIONS TO VISIBILITY.


NDZ001>003-009>011-017-311600-
NORTHWEST NORTH DAKOTA

CITY           SKY/WX    TMP DP  RH WIND       PRES   REMARKS
WILLISTON      SUNNY     64  49  57 W13       29.88R
MINOT          SUNNY     67  53  61 W12       29.81R
MINOT AFB      SUNNY     67  57  70 W8        29.80R
$$

NDZ018>021-031>035-040>046-311600-
SOUTHWEST NORTH DAKOTA

CITY           SKY/WX    TMP DP  RH WIND       PRES   REMARKS
BISMARCK       PTSUNNY   69  59  70 N14G21    29.85R
DICKINSON      SUNNY     65  51  60 W17       29.91R
GARRISON         N/A     68  55  63 NW14      29.85R
HETTINGER ARPT PTSUNNY   63  51  65 NW10      29.95R
$$

NDZ004>008-012>016-024-026-027-054-311600-
NORTHEAST NORTH DAKOTA

CITY           SKY/WX    TMP DP  RH WIND       PRES   REMARKS
GRAND FORKS    CLOUDY    68  63  84 SW8       29.68R
GRND FRKS AFB  CLOUDY    70  65  85 SW2       29.69R
DEVILS LAKE    PTSUNNY   68  55  64 NW17G24   29.75R
$$

NDZ022-023-025-028>030-036>039-047>053-311600-
SOUTHEAST NORTH DAKOTA

CITY           SKY/WX    TMP DP  RH WIND       PRES   REMARKS
FARGO          SUNNY     74  61  63 S15       29.70S
JAMESTOWN      PTSUNNY   72  65  78 N9        29.76R HAZE
$$



USA.gov is the U.S. government's official web portal to all federal, state and local government web resources and services.